Weather History for KGHW - September, 2012

Change the Weather History Date:

Thursday, September 6, 2012

  Actual Average Record
Temperature  
Mean Temperature 63 °F -  
Max Temperature 78 °F 76 °F 93 °F (2003)
Min Temperature 48 °F 50 °F 31 °F (1956)
Degree Days  
Heating Degree Days 2    
Growing Degree Days 13 (Base 50)    
Moisture  
Dew Point 45 °F    
Average Humidity 58    
Maximum Humidity 87    
Minimum Humidity 20    
Precipitation  
Precipitation 0.00 in - - ()
Sea Level Pressure  
Sea Level Pressure 29.94 in    
Wind  
Wind Speed 6 mph (SW)    
Max Wind Speed 12 mph    
Max Gust Speed -    
Visibility 10 miles    
Events Rain , Thunderstorm    
Averages and records for this station are not official NWS values.
T = Trace of Precipitation, MM = Missing Value Source: NWS Daily Summary

Daily Weather History Graph

Daily Weather History Graph

Search for Another Location

Airport or City:

Trip Planner

Search our weather history database for the weather conditions in past years. The results will help you decide how hot, cold, wet, or windy it might be!

Date:

Astronomy

Sep. 06, 2012 Rise Set
Actual Time 6:49 AM CDT 7:48 PM CDT
Civil Twilight 6:18 AM CDT 8:18 PM CDT
Nautical Twilight 5:42 AM CDT 8:55 PM CDT
Astronomical Twilight 5:04 AM CDT 9:33 PM CDT
Moon 10:38 PM CDT (9/6) 1:10 PM CDT (9/6)
Length of Visible Light 14h 00m
Length of Day
12h 59m
Waning Gibbous, 67% of the Moon is Illuminated
Sep 6
Waning Gibbous
Sep 8
Last Quarter
Sep 15
New
Sep 22
First Quarter
Sep 29
Full

Hourly Weather History & Observations

Time (CDT) Temp. Dew Point Humidity Pressure Visibility Wind Dir Wind Speed Gust Speed Precip Events Conditions
12:13 AM 55.4 °F 46.4 °F 72% 29.93 in 10.0 mi WSW 5.8 mph - N/A   Clear
12:33 AM 53.6 °F 46.4 °F 77% 29.94 in 10.0 mi WSW 6.9 mph - N/A   Clear
12:53 AM 53.6 °F 46.4 °F 77% 29.94 in 10.0 mi WSW 4.6 mph - N/A   Clear
1:14 AM 53.6 °F 46.4 °F 77% 29.94 in 10.0 mi WSW 5.8 mph - N/A   Clear
1:33 AM 53.6 °F 46.4 °F 77% 29.94 in 10.0 mi WSW 4.6 mph - N/A   Clear
1:53 AM 53.6 °F 46.4 °F 77% 29.94 in 10.0 mi WSW 5.8 mph - N/A   Clear
2:14 AM 53.6 °F 46.4 °F 77% 29.94 in 10.0 mi WSW 5.8 mph - N/A   Clear
2:33 AM 51.8 °F 46.4 °F 82% 29.94 in 10.0 mi WSW 5.8 mph - N/A   Clear
2:53 AM 51.8 °F 44.6 °F 76% 29.94 in 10.0 mi WSW 5.8 mph - N/A   Clear
3:14 AM 51.8 °F 44.6 °F 76% 29.94 in 10.0 mi WSW 6.9 mph - N/A   Clear
3:33 AM 51.8 °F 44.6 °F 76% 29.95 in 10.0 mi SW 6.9 mph - N/A   Clear
3:53 AM 51.8 °F 44.6 °F 76% 29.95 in 10.0 mi WSW 5.8 mph - N/A   Clear
4:14 AM 50.0 °F 44.6 °F 82% 29.95 in 10.0 mi WSW 5.8 mph - N/A   Clear
4:33 AM 50.0 °F 44.6 °F 82% 29.95 in 10.0 mi SW 6.9 mph - N/A   Clear
4:53 AM 50.0 °F 44.6 °F 82% 29.94 in 10.0 mi WSW 5.8 mph - N/A   Clear
5:13 AM 48.2 °F 44.6 °F 87% 29.94 in 10.0 mi SW 6.9 mph - N/A   Clear
5:33 AM 50.0 °F 44.6 °F 82% 29.94 in 10.0 mi SW 6.9 mph - N/A   Clear
5:54 AM 50.0 °F 44.6 °F 82% 29.94 in 10.0 mi SW 5.8 mph - N/A   Clear
6:13 AM 50.0 °F 44.6 °F 82% 29.95 in 10.0 mi SW 6.9 mph - N/A   Clear
6:33 AM 51.8 °F 44.6 °F 76% 29.95 in 10.0 mi SW 8.1 mph - N/A   Clear
6:54 AM 50.0 °F 42.8 °F 76% 29.95 in 7.0 mi SW 5.8 mph - N/A   Clear
7:13 AM 50.0 °F 44.6 °F 82% 29.96 in 10.0 mi SW 5.8 mph - N/A   Clear
7:33 AM 51.8 °F 44.6 °F 76% 29.97 in 10.0 mi SW 8.1 mph - N/A   Clear
7:54 AM 53.6 °F 46.4 °F 77% 29.97 in 7.0 mi SW 5.8 mph - N/A   Clear
8:13 AM 55.4 °F 48.2 °F 77% 29.97 in 10.0 mi SW 3.5 mph - N/A   Clear
8:33 AM 57.2 °F 48.2 °F 72% 29.97 in 10.0 mi SSW 5.8 mph - N/A   Clear
8:53 AM 60.8 °F 48.2 °F 63% 29.97 in 10.0 mi SW 6.9 mph - N/A   Clear
9:13 AM 64.4 °F 46.4 °F 52% 29.97 in 10.0 mi WSW 6.9 mph - N/A   Clear
9:53 AM 68.0 °F 42.8 °F 40% 29.96 in 10.0 mi SW 8.1 mph - N/A   Clear
10:13 AM 69.8 °F 42.8 °F 38% 29.97 in 10.0 mi SW 9.2 mph - N/A   Clear
10:33 AM 71.6 °F 41.0 °F 33% 29.96 in 10.0 mi WSW 8.1 mph - N/A   Clear
10:53 AM 71.6 °F 39.2 °F 31% 29.95 in 10.0 mi WSW 9.2 mph - N/A   Clear
11:13 AM 73.4 °F 39.2 °F 29% 29.95 in 10.0 mi WSW 8.1 mph - N/A   Clear
11:33 AM 75.2 °F 39.2 °F 27% 29.95 in 10.0 mi WSW 8.1 mph - N/A   Clear
11:53 AM 75.2 °F 37.4 °F 25% 29.95 in 10.0 mi WSW 8.1 mph - N/A   Clear
12:13 PM 77.0 °F 37.4 °F 24% 29.95 in 10.0 mi SW 6.9 mph - N/A   Clear
12:33 PM 78.8 °F 37.4 °F 23% 29.93 in 10.0 mi SSW 5.8 mph - N/A   Clear
12:53 PM 78.8 °F 37.4 °F 23% 29.92 in 10.0 mi SW 5.8 mph - N/A   Clear
1:13 PM 77.0 °F 37.4 °F 24% 29.92 in 10.0 mi Calm Calm - N/A   Clear
1:33 PM 78.8 °F 35.6 °F 21% 29.91 in 10.0 mi Calm Calm - N/A   Clear
1:53 PM 78.8 °F 33.8 °F 20% 29.90 in 10.0 mi SSW 4.6 mph - N/A Thunderstorm Thunderstorm
2:13 PM 75.2 °F 35.6 °F 24% 29.92 in 10.0 mi SW 4.6 mph - N/A   Scattered Clouds
2:33 PM 75.2 °F 35.6 °F 24% 29.91 in 10.0 mi SW 3.5 mph - N/A   Scattered Clouds
2:53 PM 75.2 °F 37.4 °F 25% 29.91 in 10.0 mi SSW 4.6 mph - N/A Rain Light Rain
3:13 PM 75.2 °F 39.2 °F 27% 29.91 in 10.0 mi SSW 11.5 mph - N/A   Scattered Clouds
3:53 PM 75.2 °F 39.2 °F 27% 29.91 in 10.0 mi SSW 6.9 mph - N/A   Scattered Clouds
4:14 PM 73.4 °F 42.8 °F 33% 29.91 in 10.0 mi South 8.1 mph - N/A   Scattered Clouds
4:33 PM 73.4 °F 42.8 °F 33% 29.91 in 10.0 mi South 4.6 mph - N/A   Scattered Clouds
4:53 PM 73.4 °F 42.8 °F 33% 29.91 in 10.0 mi South 4.6 mph - N/A   Scattered Clouds
5:14 PM 73.4 °F 42.8 °F 33% 29.91 in 10.0 mi South 3.5 mph - N/A   Scattered Clouds
5:33 PM 73.4 °F 42.8 °F 33% 29.91 in 10.0 mi SSE 3.5 mph - N/A   Mostly Cloudy
5:53 PM 71.6 °F 44.6 °F 38% 29.91 in 10.0 mi Calm Calm - N/A   Overcast
6:14 PM 71.6 °F 46.4 °F 41% 29.92 in 10.0 mi South 3.5 mph - N/A   Overcast
6:33 PM 69.8 °F 51.8 °F 53% 29.92 in 10.0 mi Calm Calm - N/A   Overcast
6:53 PM 66.2 °F 48.2 °F 52% 29.93 in 10.0 mi NNE 9.2 mph - N/A   Scattered Clouds
7:14 PM 66.2 °F 48.2 °F 52% 29.93 in 10.0 mi NNE 9.2 mph - N/A Rain Light Rain
7:33 PM 62.6 °F 51.8 °F 68% 29.92 in 10.0 mi NNE 9.2 mph - N/A Rain Light Rain
7:53 PM 62.6 °F 51.8 °F 68% 29.92 in 10.0 mi NE 11.5 mph - N/A   Scattered Clouds
8:13 PM 60.8 °F 51.8 °F 72% 29.92 in 10.0 mi ENE 8.1 mph - N/A Rain Rain
8:33 PM 60.8 °F 51.8 °F 72% 29.91 in 10.0 mi ENE 10.4 mph - N/A Rain Light Rain
8:53 PM 60.8 °F 51.8 °F 72% 29.92 in 10.0 mi NNE 9.2 mph - N/A Rain Light Rain
9:13 PM 60.8 °F 51.8 °F 72% 29.92 in 10.0 mi NE 8.1 mph - N/A   Light Drizzle
9:33 PM 59.0 °F 53.6 °F 82% 29.93 in 10.0 mi NNE 6.9 mph - N/A   Light Drizzle
10:13 PM 59.0 °F 53.6 °F 82% 29.94 in 10.0 mi North 8.1 mph - N/A   Mostly Cloudy
10:33 PM 60.8 °F 53.6 °F 77% 29.95 in 10.0 mi North 8.1 mph - N/A   Overcast
10:53 PM 60.8 °F 53.6 °F 77% 29.96 in 10.0 mi North 9.2 mph - N/A   Scattered Clouds
11:13 PM 59.0 °F 53.6 °F 82% 29.96 in 10.0 mi North 11.5 mph - N/A   Clear
11:33 PM 59.0 °F 53.6 °F 82% 29.96 in 10.0 mi NNE 11.5 mph - N/A   Scattered Clouds
11:53 PM 59.0 °F 53.6 °F 82% 29.97 in 10.0 mi NNE 8.1 mph - N/A   Scattered Clouds